Darstellungsparameter: Aktuell verwendete Einstellungen:
Skalierung der Graphiken ... ?
xyx+y,   Skalierungsfaktor:      Skalierung: Modus: x, Faktor: 1
Darstellungszeitraum ... ?
Vom - - bis: - -   Zeitraum: 16.08.2013 - 15.08.2014
Min/Max/Avg-Anzeige ... ?
Zeige MMA aktuell
Zeige MMA Monat
Zeige MMA alles
Zeige --A aktuell
Zeige --A Monat
Zeige --A alles
Keine MMA-Anzeige
MMA:
Average (ber die Originaldaten)
MMA-Basis: 14.07.2014 - 16.08.2014
Quicknavigation für Darstellung... ?
Tage:      1T, 2T, 3T, 5T -1T -2T -3T -5T +1T +2T +3T +5T
Wochen: 1W, 2W, 3W -1W -2W -3W +1W +2W +3W
Monate: 1M, 3M, 6M -1M -3M -6M +1M +3M +6M
Jahre:    1J, 3J, 5J, 10J -1J -3J -5J -10J +1J +3J +5J +10J
Nutze für die Darstellung ... ?
Originaldaten oder ...
Mittelwerte Minima Maxima auf...
Stundenbasis Tagesbasis Wochenbasis
Monatsbasis Jahresbasis      Datenbasis: Mittelwerte auf Tagesbasis
Darstellen als:
Statistik (Auto) Statistik J:M      Darstellung:
Zur Graphik,    zurück zur Übersicht aller Sensoren.
 
Tabellarische Datenbersicht: ?
 
Sensor: Nr:Datum:Temp:Feuchte:Taupunkt:
Aussen-T/F 1 16-08-2013 00:00:00 17.96319 C 75.3750 % 13.55 C
2 17-08-2013 00:00:00 20.47965 C 70.5158 % 14.94 C
3 18-08-2013 00:00:00 19.29614 C 82.4596 % 16.23 C
4 19-08-2013 00:00:00 17.75764 C 80.2465 % 14.31 C
5 20-08-2013 00:00:00 14.96458 C 79.6111 % 11.47 C
6 21-08-2013 00:00:00 15.16285 C 81.7743 % 12.07 C
7 22-08-2013 00:00:00 16.33576 C 83.6111 % 13.56 C
8 23-08-2013 00:00:00 18.61667 C 76.7708 % 14.46 C
9 24-08-2013 00:00:00 16.10208 C 89.7396 % 14.42 C
10 25-08-2013 00:00:00 16.06806 C 95.2708 % 15.31 C
11 26-08-2013 00:00:00 15.16806 C 96.5451 % 14.62 C
12 27-08-2013 00:00:00 15.88472 C 89.9792 % 14.24 C
13 28-08-2013 00:00:00 15.65312 C 87.5035 % 13.59 C
14 29-08-2013 00:00:00 14.74062 C 90.2153 % 13.15 C
15 30-08-2013 00:00:00 15.73924 C 87.8472 % 13.73 C
16 31-08-2013 00:00:00 16.33229 C 86.2986 % 14.04 C
17 01-09-2013 00:00:00 14.50938 C 73.5035 % 9.83 C
18 02-09-2013 00:00:00 17.48924 C 69.9375 % 11.95 C
19 03-09-2013 00:00:00 18.08299 C 80.6319 % 14.7 C
20 04-09-2013 00:00:00 17.74583 C 85.1701 % 15.22 C
21 05-09-2013 00:00:00 18.47349 C 84.5181 % 15.82 C
22 06-09-2013 00:00:00 22.68615 C 74.2769 % 17.87 C
23 07-09-2013 00:00:00 18.36354 C 91.5208 % 16.96 C
24 08-09-2013 00:00:00 14.78542 C 93.9097 % 13.81 C
25 09-09-2013 00:00:00 14.16944 C 86.9965 % 12.04 C
Sensor: Nr:Datum:Temp:Feuchte:Taupunkt:
Aussen-T/F 26 10-09-2013 00:00:00 13.35073 C 82.4891 % 10.43 C
27 11-09-2013 00:00:00 13.00912 C 87.8066 % 11.04 C
28 12-09-2013 00:00:00 13.53472 C 92.7535 % 12.39 C
29 13-09-2013 00:00:00 14.67363 C 88.3553 % 12.77 C
30 14-09-2013 00:00:00 15.8191 C 93.1007 % 14.71 C
31 15-09-2013 00:00:00 14.41667 C 87.2500 % 12.33 C
32 16-09-2013 00:00:00 13.23333 C 81.3229 % 10.11 C
33 17-09-2013 00:00:00 10.58958 C 82.5833 % 7.75 C
34 18-09-2013 00:00:00 12.57951 C 92.8750 % 11.46 C
35 19-09-2013 00:00:00 11.89444 C 86.6076 % 9.73 C
36 20-09-2013 00:00:00 13.91806 C 85.7778 % 11.58 C
37 21-09-2013 00:00:00 12.20868 C 91.0000 % 10.78 C
38 22-09-2013 00:00:00 13.3788 C 90.7668 % 11.9 C
39 23-09-2013 00:00:00 15.46493 C 89.1076 % 13.68 C
40 24-09-2013 00:00:00 12.34792 C 94.6979 % 11.52 C
41 25-09-2013 00:00:00 14.08646 C 94.5347 % 13.22 C
42 26-09-2013 00:00:00 14.58924 C 91.1389 % 13.16 C
43 27-09-2013 00:00:00 11.25312 C 89.0660 % 9.52 C
44 28-09-2013 00:00:00 10.575 C 88.4286 % 8.74 C
45 29-09-2013 00:00:00 11.89028 C 85.1667 % 9.48 C
46 30-09-2013 00:00:00 9.80833 C 87.1910 % 7.78 C
47 01-10-2013 00:00:00 11.38264 C 80.5903 % 8.17 C
48 02-10-2013 00:00:00 9.01493 C 82.1111 % 6.13 C
49 03-10-2013 00:00:00 8.84479 C 80.9549 % 5.76 C
50 04-10-2013 00:00:00 11.33993 C 91.6215 % 10.03 C
Sensor: Nr:Datum:Temp:Feuchte:Taupunkt:
Aussen-T/F 51 05-10-2013 00:00:00 12.69583 C 97.5486 % 12.32 C
52 06-10-2013 00:00:00 13.60313 C 92.6910 % 12.44 C
53 07-10-2013 00:00:00 13.21667 C 94.6806 % 12.38 C
54 08-10-2013 00:00:00 13.44791 C 95.3505 % 12.72 C
55 09-10-2013 00:00:00 13.86667 C 91.5938 % 12.52 C
56 10-10-2013 00:00:00 8.4625 C 94.6285 % 7.65 C
57 11-10-2013 00:00:00 6.86042 C 97.1285 % 6.44 C
58 12-10-2013 00:00:00 6.31215 C 95.1910 % 5.6 C
59 13-10-2013 00:00:00 7.69167 C 90.0208 % 6.16 C
60 14-10-2013 00:00:00 9.89091 C 92.2182 % 8.69 C
61 15-10-2013 00:00:00 10.43275 C 94.2113 % 9.54 C
62 16-10-2013 00:00:00 10.04523 C 95.8799 % 9.42 C
63 17-10-2013 00:00:00 12.70972 C 88.6771 % 10.89 C
64 18-10-2013 00:00:00 11.80868 C 95.7083 % 11.15 C
65 19-10-2013 00:00:00 11.72702 C 95.4877 % 11.03 C
66 20-10-2013 00:00:00 15.28507 C 93.8021 % 14.29 C
67 21-10-2013 00:00:00 15.075 C 89.9861 % 13.45 C
68 22-10-2013 00:00:00 15.7614 C 91.7404 % 14.42 C
69 23-10-2013 00:00:00 15.81476 C 92.6790 % 14.63 C
70 24-10-2013 00:00:00 13.67431 C 95.5069 % 12.97 C
71 25-10-2013 00:00:00 13.01701 C 96.8958 % 12.54 C
72 26-10-2013 00:00:00 16.41144 C 95.1808 % 15.64 C
73 27-10-2013 00:00:00 14.94896 C 83.9028 % 12.25 C
74 28-10-2013 00:00:00 15.40962 C 78.1385 % 11.62 C
75 29-10-2013 00:00:00 11.12569 C 77.4901 % 7.34 C
Sensor: Nr:Datum:Temp:Feuchte:Taupunkt:
Aussen-T/F 76 30-10-2013 00:00:00 7.81825 C 86.6702 % 5.74 C
77 31-10-2013 00:00:00 5.27708 C 94.3854 % 4.45 C
78 01-11-2013 00:00:00 9.4316 C 89.5208 % 7.8 C
79 02-11-2013 00:00:00 12.79889 C 90.4354 % 11.27 C
80 03-11-2013 00:00:00 9.93611 C 83.6701 % 7.31 C
81 04-11-2013 00:00:00 9.80526 C 87.0912 % 7.76 C
82 05-11-2013 00:00:00 6.72153 C 87.5556 % 4.81 C
83 06-11-2013 00:00:00 10.70215 C 88.7348 % 8.92 C
84 07-11-2013 00:00:00 15.04132 C 84.5243 % 12.46 C
85 08-11-2013 00:00:00 11.92093 C 93.0372 % 10.83 C
86 09-11-2013 00:00:00 9.48785 C 80.9931 % 6.39 C
87 10-11-2013 00:00:00 6.68715 C 90.9653 % 5.32 C
88 11-11-2013 00:00:00 4.00764 C 96.3542 % 3.48 C
89 12-11-2013 00:00:00 4.41146 C 93.7951 % 3.5 C
90 13-11-2013 00:00:00 6.28491 C 93.5579 % 5.32 C
91 14-11-2013 00:00:00 3.2816 C 95.0833 % 2.57 C
92 15-11-2013 00:00:00 4.99201 C 90.5035 % 3.57 C
93 16-11-2013 00:00:00 3.05 C 91.8507 % 1.86 C
94 17-11-2013 00:00:00 3.2184 C 94.6285 % 2.44 C
95 18-11-2013 00:00:00 5.38287 C 94.0916 % 4.51 C
96 19-11-2013 00:00:00 6.22 C 91.5647 % 4.95 C
97 20-11-2013 00:00:00 3.96643 C 91.7483 % 2.75 C
98 21-11-2013 00:00:00 4.05603 C 89.4310 % 2.48 C
99 22-11-2013 00:00:00 4.42 C 86.5545 % 2.38 C
100 23-11-2013 00:00:00 7.03092 C 87.0000 % 5.02 C
Sensor: Nr:Datum:Temp:Feuchte:Taupunkt:
Aussen-T/F 101 24-11-2013 00:00:00 5.71435 C 88.4739 % 3.96 C
102 25-11-2013 00:00:00 2.65439 C 93.3216 % 1.69 C
103 26-11-2013 00:00:00 0.53125 C 94.5590 % -0.24 C
104 27-11-2013 00:00:00 0.63854 C 92.5035 % -0.43 C
105 28-11-2013 00:00:00 3.45709 C 94.3022 % 2.63 C
106 29-11-2013 00:00:00 5.6434 C 91.5833 % 4.38 C
107 30-11-2013 00:00:00 4.32604 C 93.7951 % 3.42 C
108 01-12-2013 00:00:00 5.01254 C 94.7178 % 4.24 C
109 02-12-2013 00:00:00 4.76458 C 93.0486 % 3.74 C
110 03-12-2013 00:00:00 -0.45729 C 97.1806 % -0.85 C
111 04-12-2013 00:00:00 3.27917 C 91.8924 % 2.09 C
112 05-12-2013 00:00:00 3.93475 C 87.9291 % 2.12 C
113 06-12-2013 00:00:00 3.76181 C 74.9583 % -0.26 C
114 07-12-2013 00:00:00 4.38715 C 85.8194 % 2.23 C
115 08-12-2013 00:00:00 6.92188 C 87.3785 % 4.97 C
116 09-12-2013 00:00:00 6.42222 C 84.1806 % 3.95 C
117 10-12-2013 00:00:00 3.24896 C 95.9236 % 2.66 C
118 11-12-2013 00:00:00 3.72465 C 96.5903 % 3.23 C
119 12-12-2013 00:00:00 4.08993 C 92.2118 % 2.94 C
120 13-12-2013 00:00:00 2.65694 C 90.5313 % 1.27 C
121 14-12-2013 00:00:00 3.58986 C 92.6923 % 2.52 C
122 15-12-2013 00:00:00 4.99688 C 85.9340 % 2.84 C
123 16-12-2013 00:00:00 1.49676 C 94.6511 % 0.73 C
124 17-12-2013 00:00:00 1.25451 C 95.3924 % 0.6 C
125 18-12-2013 00:00:00 4.19965 C 94.2153 % 3.35 C
Sensor: Nr:Datum:Temp:Feuchte:Taupunkt:
Aussen-T/F 126 19-12-2013 00:00:00 8.13715 C 88.2813 % 6.32 C
127 20-12-2013 00:00:00 4.38403 C 92.2708 % 3.24 C
128 21-12-2013 00:00:00 4.81354 C 81.8229 % 1.98 C
129 22-12-2013 00:00:00 8.81493 C 82.7222 % 6.04 C
130 23-12-2013 00:00:00 8.42341 C 85.6230 % 6.16 C
131 24-12-2013 00:00:00 11.57579 C 73.6140 % 7.03 C
132 25-12-2013 00:00:00 8.41944 C 92.4444 % 7.27 C
133 26-12-2013 00:00:00 6.06579 C 94.8195 % 5.3 C
134 27-12-2013 00:00:00 6.6549 C 85.1608 % 4.34 C
135 28-12-2013 00:00:00 9.14444 C 90.1181 % 7.61 C
136 29-12-2013 00:00:00 4.76463 C 93.9695 % 3.88 C
137 30-12-2013 00:00:00 4.17107 C 89.7934 % 2.65 C
138 31-12-2013 00:00:00 2.91045 C 89.5522 % 1.37 C
139 01-01-2014 00:00:00 6.46912 C 86.4737 % 4.38 C
140 02-01-2014 00:00:00 8.31947 C 88.5649 % 6.54 C
141 03-01-2014 00:00:00 8.74861 C 86.5347 % 6.63 C
142 04-01-2014 00:00:00 7.47049 C 88.5833 % 5.71 C
143 05-01-2014 00:00:00 6.13111 C 91.4622 % 4.85 C
144 06-01-2014 00:00:00 8.33819 C 89.1736 % 6.66 C
145 07-01-2014 00:00:00 10.72882 C 85.7708 % 8.45 C
146 08-01-2014 00:00:00 10.3965 C 86.9027 % 8.31 C
147 09-01-2014 00:00:00 9.27876 C 85.9961 % 7.06 C
148 10-01-2014 00:00:00 5.59896 C 86.9757 % 3.61 C
149 11-01-2014 00:00:00 3.80382 C 93.2049 % 2.81 C
150 12-01-2014 00:00:00 0.34545 C 97.0618 % -0.06 C
Sensor: Nr:Datum:Temp:Feuchte:Taupunkt:
Aussen-T/F 151 13-01-2014 00:00:00 3.73194 C 95.9965 % 3.15 C
152 14-01-2014 00:00:00 5.06036 C 94.4536 % 4.25 C
153 15-01-2014 00:00:00 4.1934 C 91.9444 % 3 C
154 16-01-2014 00:00:00 6.5375 C 93.3160 % 5.54 C
155 17-01-2014 00:00:00 6.75 C 92.8021 % 5.67 C
156 18-01-2014 00:00:00 4.5321 C 90.4686 % 3.11 C
157 19-01-2014 00:00:00 4.621 C 92.0569 % 3.44 C
158 20-01-2014 00:00:00 4.32836 C 94.6567 % 3.55 C
159 21-01-2014 00:00:00 3.49792 C 93.6632 % 2.58 C
160 22-01-2014 00:00:00 3.18571 C 95.3022 % 2.51 C
161 23-01-2014 00:00:00 3.72927 C 92.3049 % 2.6 C
162 24-01-2014 00:00:00 3.90268 C 93.5670 % 2.96 C
163 25-01-2014 00:00:00 2.8165 C 94.8000 % 2.07 C
164 26-01-2014 00:00:00 5.11851 C 83.3630 % 2.54 C
165 27-01-2014 00:00:00 4.4199 C 87.2094 % 2.48 C
166 28-01-2014 00:00:00 2.36869 C 88.8889 % 0.73 C
167 29-01-2014 00:00:00 1.54036 C 85.8253 % -0.57 C
168 30-01-2014 00:00:00 1.98611 C 84.2049 % -0.39 C
169 31-01-2014 00:00:00 1.03819 C 91.0799 % -0.25 C
170 01-02-2014 00:00:00 4.63819 C 89.8646 % 3.12 C
171 02-02-2014 00:00:00 4.14306 C 90.0729 % 2.66 C
172 03-02-2014 00:00:00 1.00938 C 95.5486 % 0.38 C
173 04-02-2014 00:00:00 4.28785 C 89.7083 % 2.75 C
174 05-02-2014 00:00:00 4.74236 C 89.7049 % 3.2 C
175 06-02-2014 00:00:00 8.42431 C 76.6181 % 4.56 C
Sensor: Nr:Datum:Temp:Feuchte:Taupunkt:
Aussen-T/F 176 07-02-2014 00:00:00 8.79132 C 78.4410 % 5.25 C
177 08-02-2014 00:00:00 6.5309 C 83.7222 % 3.98 C
178 09-02-2014 00:00:00 5.34375 C 80.9306 % 2.34 C
179 10-02-2014 00:00:00 3.38819 C 87.2500 % 1.48 C
180 11-02-2014 00:00:00 5.41354 C 82.3819 % 2.66 C
181 12-02-2014 00:00:00 5.44028 C 81.1319 % 2.47 C
182 13-02-2014 00:00:00 5.71771 C 88.4479 % 3.96 C
183 14-02-2014 00:00:00 5.64722 C 85.6979 % 3.44 C
184 15-02-2014 00:00:00 9.70669 C 79.3415 % 6.31 C
185 16-02-2014 00:00:00 7.36493 C 80.5694 % 4.25 C
186 17-02-2014 00:00:00 3.59861 C 91.7118 % 2.38 C
187 18-02-2014 00:00:00 3.38715 C 94.0590 % 2.52 C
188 19-02-2014 00:00:00 7.825 C 84.9722 % 5.46 C
189 20-02-2014 00:00:00 8.68958 C 82.6215 % 5.9 C
190 21-02-2014 00:00:00 7.64062 C 84.5451 % 5.21 C
191 22-02-2014 00:00:00 4.99861 C 87.1563 % 3.05 C
192 23-02-2014 00:00:00 5.94204 C 83.6694 % 3.39 C
193 24-02-2014 00:00:00 5.86389 C 80.9444 % 2.85 C
194 25-02-2014 00:00:00 6.68681 C 82.1910 % 3.87 C
195 26-02-2014 00:00:00 8.58182 C 81.5382 % 5.61 C
196 27-02-2014 00:00:00 5.86275 C 84.1961 % 3.41 C
197 28-02-2014 00:00:00 6.2146 C 87.8248 % 4.35 C
198 01-03-2014 00:00:00 5.44375 C 88.4410 % 3.69 C
199 02-03-2014 00:00:00 3.55069 C 87.5208 % 1.68 C
200 03-03-2014 00:00:00 5.27743 C 86.6458 % 3.24 C
Sensor: Nr:Datum:Temp:Feuchte:Taupunkt:
Aussen-T/F 201 04-03-2014 00:00:00 4.21701 C 86.7118 % 2.2 C
202 05-03-2014 00:00:00 4.68235 C 86.5059 % 2.63 C
203 06-03-2014 00:00:00 3.87951 C 89.4306 % 2.3 C
204 07-03-2014 00:00:00 6.23037 C 80.7383 % 3.17 C
205 08-03-2014 00:00:00 7.3847 C 80.0427 % 4.18 C
206 09-03-2014 00:00:00 7.27263 C 76.4772 % 3.42 C
207 10-03-2014 00:00:00 7.44444 C 75.5035 % 3.41 C
208 11-03-2014 00:00:00 8.4184 C 78.6424 % 4.93 C
209 12-03-2014 00:00:00 9.07812 C 74.1354 % 4.72 C
210 13-03-2014 00:00:00 8.16007 C 73.3681 % 3.69 C
211 14-03-2014 00:00:00 7.91944 C 76.8993 % 4.12 C
212 15-03-2014 00:00:00 8.97326 C 77.3021 % 5.22 C
213 16-03-2014 00:00:00 11.50486 C 77.2500 % 7.67 C
214 17-03-2014 00:00:00 10.27882 C 81.5486 % 7.27 C
215 18-03-2014 00:00:00 9.4066 C 83.2882 % 6.72 C
216 19-03-2014 00:00:00 12.2875 C 70.5521 % 7.1 C
217 20-03-2014 00:00:00 12.49333 C 67.2772 % 6.6 C
218 21-03-2014 00:00:00 13.1375 C 66.5069 % 7.05 C
219 22-03-2014 00:00:00 8.65208 C 83.0799 % 5.95 C
220 23-03-2014 00:00:00 6.03507 C 81.4861 % 3.11 C
221 24-03-2014 00:00:00 5.42632 C 80.7404 % 2.39 C
222 25-03-2014 00:00:00 4.1625 C 82.4271 % 1.44 C
223 26-03-2014 00:00:00 4.56076 C 78.8125 % 1.21 C
224 27-03-2014 00:00:00 8.14604 C 73.6475 % 3.73 C
225 28-03-2014 00:00:00 10.60972 C 66.4167 % 4.62 C
Sensor: Nr:Datum:Temp:Feuchte:Taupunkt:
Aussen-T/F 226 29-03-2014 00:00:00 10.34963 C 70.5809 % 5.24 C
227 30-03-2014 00:00:00 9.15619 C 76.1429 % 5.18 C
228 31-03-2014 00:00:00 12.96562 C 65.8924 % 6.75 C
229 01-04-2014 00:00:00 13.77519 C 67.7366 % 7.92 C
230 02-04-2014 00:00:00 13.90458 C 68.9754 % 8.31 C
231 03-04-2014 00:00:00 12.54324 C 77.5811 % 8.74 C
232 04-04-2014 00:00:00 14.95971 C 74.9173 % 10.55 C
233 05-04-2014 00:00:00 13.00531 C 86.2612 % 10.77 C
234 06-04-2014 00:00:00 11.67782 C 83.0879 % 8.91 C
235 07-04-2014 00:00:00 15.95041 C 75.4713 % 11.62 C
236 08-04-2014 00:00:00 12.18521 C 67.1585 % 6.28 C
237 09-04-2014 00:00:00 9.27426 C 75.9154 % 5.25 C
238 10-04-2014 00:00:00 10.31543 C 77.0864 % 6.48 C
239 11-04-2014 00:00:00 14.56849 C 72.5000 % 9.69 C
240 12-04-2014 00:00:00 12.65368 C 70.8982 % 7.52 C
241 13-04-2014 00:00:00 11.60669 C 71.0599 % 6.55 C
242 14-04-2014 00:00:00 9.7593 C 71.2491 % 4.81 C
243 15-04-2014 00:00:00 7.10171 C 73.7991 % 2.75 C
244 16-04-2014 00:00:00 12.97192 C 49.4521 % 2.65 C
245 17-04-2014 00:00:00 9.85313 C 63.3021 % 3.22 C
246 18-04-2014 00:00:00 10.72049 C 64.8750 % 4.39 C
247 19-04-2014 00:00:00 10.82049 C 71.8993 % 5.96 C
248 20-04-2014 00:00:00 14.91825 C 70.5509 % 9.62 C
249 21-04-2014 00:00:00 12.49479 C 77.9896 % 8.77 C
250 22-04-2014 00:00:00 12.82847 C 85.6076 % 10.48 C
Sensor: Nr:Datum:Temp:Feuchte:Taupunkt:
Aussen-T/F 251 23-04-2014 00:00:00 13.43958 C 81.1771 % 10.28 C
252 24-04-2014 00:00:00 15.42535 C 79.0035 % 11.8 C
253 25-04-2014 00:00:00 16.71562 C 74.1319 % 12.09 C
254 26-04-2014 00:00:00 15.2 C 74.7604 % 10.75 C
255 27-04-2014 00:00:00 13.07674 C 81.7986 % 10.04 C
256 28-04-2014 00:00:00 12.80243 C 79.8715 % 9.42 C
257 29-04-2014 00:00:00 13.43403 C 90.3056 % 11.88 C
258 30-04-2014 00:00:00 14.53507 C 84.7500 % 12 C
259 01-05-2014 00:00:00 14.73611 C 81.3611 % 11.58 C
260 02-05-2014 00:00:00 11.71319 C 86.6736 % 9.57 C
261 03-05-2014 00:00:00 10.92708 C 61.0069 % 3.71 C
262 04-05-2014 00:00:00 9.61042 C 68.0590 % 4.02 C
263 05-05-2014 00:00:00 12.60069 C 67.5521 % 6.76 C
264 06-05-2014 00:00:00 13.72083 C 74.2778 % 9.23 C
265 07-05-2014 00:00:00 13.05764 C 84.9931 % 10.6 C
266 08-05-2014 00:00:00 12.32847 C 84.6146 % 9.81 C
267 09-05-2014 00:00:00 15.33403 C 71.0833 % 10.13 C
268 10-05-2014 00:00:00 12.40903 C 81.6528 % 9.36 C
269 11-05-2014 00:00:00 11.45764 C 80.1667 % 8.16 C
270 12-05-2014 00:00:00 11.1941 C 74.9167 % 6.92 C
271 13-05-2014 00:00:00 10.30729 C 85.3368 % 7.96 C
272 14-05-2014 00:00:00 10.63542 C 76.9514 % 6.77 C
273 15-05-2014 00:00:00 10.00382 C 80.4757 % 6.8 C
274 16-05-2014 00:00:00 13.25347 C 73.1250 % 8.55 C
275 17-05-2014 00:00:00 14.22292 C 71.7500 % 9.2 C
Sensor: Nr:Datum:Temp:Feuchte:Taupunkt:
Aussen-T/F 276 18-05-2014 00:00:00 15.4809 C 74.3021 % 10.93 C
277 19-05-2014 00:00:00 17.57188 C 70.6944 % 12.19 C
278 20-05-2014 00:00:00 19.46562 C 67.3681 % 13.26 C
279 21-05-2014 00:00:00 20.29792 C 68.1181 % 14.23 C
280 22-05-2014 00:00:00 20.21806 C 65.7465 % 13.61 C
281 23-05-2014 00:00:00 15.52639 C 89.6667 % 13.84 C
282 24-05-2014 00:00:00 14.72993 C 81.1514 % 11.53 C
283 25-05-2014 00:00:00 15.25071 C 74.9149 % 10.83 C
284 26-05-2014 00:00:00 16.8625 C 80.3056 % 13.45 C
285 27-05-2014 00:00:00 15.19431 C 94.7346 % 14.36 C
286 28-05-2014 00:00:00 14.58118 C 88.4000 % 12.69 C
287 29-05-2014 00:00:00 13.44653 C 87.1042 % 11.35 C
288 30-05-2014 00:00:00 13.2316 C 70.4167 % 7.97 C
289 31-05-2014 00:00:00 13.40382 C 74.2639 % 8.92 C
290 01-06-2014 00:00:00 15.49273 C 69.6545 % 9.98 C
291 02-06-2014 00:00:00 15.88943 C 67.9715 % 9.99 C
292 03-06-2014 00:00:00 15.78662 C 74.8627 % 11.34 C
293 04-06-2014 00:00:00 14.95388 C 86.4155 % 12.71 C
294 05-06-2014 00:00:00 14.55765 C 67.7687 % 8.68 C
295 06-06-2014 00:00:00 17.20312 C 67.7778 % 11.2 C
296 07-06-2014 00:00:00 20.77257 C 72.3750 % 15.62 C
297 08-06-2014 00:00:00 24.09514 C 70.7431 % 18.45 C
298 09-06-2014 00:00:00 25.74583 C 69.9583 % 19.85 C
299 10-06-2014 00:00:00 23.66632 C 70.6389 % 18.01 C
300 11-06-2014 00:00:00 20.10803 C 81.3175 % 16.81 C
Sensor: Nr:Datum:Temp:Feuchte:Taupunkt:
Aussen-T/F 301 12-06-2014 00:00:00 19.97431 C 66.4583 % 13.54 C
302 13-06-2014 00:00:00 18.37014 C 68.1597 % 12.4 C
303 14-06-2014 00:00:00 17.27465 C 65.5104 % 10.76 C
304 15-06-2014 00:00:00 16.86944 C 67.1875 % 10.75 C
305 16-06-2014 00:00:00 15.61944 C 74.7396 % 11.15 C
306 17-06-2014 00:00:00 17.41354 C 66.8819 % 11.2 C
307 18-06-2014 00:00:00 17.76319 C 71.4931 % 12.54 C
308 19-06-2014 00:00:00 15.70791 C 75.5252 % 11.4 C
309 20-06-2014 00:00:00 15.64143 C 71.1667 % 10.44 C
310 21-06-2014 00:00:00 16.62118 C 65.5903 % 10.15 C
311 22-06-2014 00:00:00 16.62782 C 66.3415 % 10.33 C
312 23-06-2014 00:00:00 17.14792 C 65.1910 % 10.56 C
313 24-06-2014 00:00:00 16.64978 C 71.6277 % 11.5 C
314 25-06-2014 00:00:00 17.29096 C 56.5426 % 8.58 C
315 26-06-2014 00:00:00 16.18958 C 64.0764 % 9.4 C
316 27-06-2014 00:00:00 17.54167 C 67.2604 % 11.41 C
317 28-06-2014 00:00:00 16.28043 C 87.3950 % 14.18 C
318 29-06-2014 00:00:00 14.67192 C 93.3251 % 13.61 C
319 30-06-2014 00:00:00 16.05247 C 75.2167 % 11.67 C
320 01-07-2014 00:00:00 15.65035 C 70.2917 % 10.26 C
321 02-07-2014 00:00:00 16.86146 C 65.5313 % 10.37 C
322 03-07-2014 00:00:00 19.78889 C 59.6493 % 11.72 C
323 04-07-2014 00:00:00 20.36076 C 67.5382 % 14.16 C
324 05-07-2014 00:00:00 20.4 C 77.3439 % 16.3 C
325 06-07-2014 00:00:00 23.48509 C 69.7818 % 17.65 C
Sensor: Nr:Datum:Temp:Feuchte:Taupunkt:
Aussen-T/F 326 07-07-2014 00:00:00 19.86367 C 64.8202 % 13.05 C
327 08-07-2014 00:00:00 15.57633 C 89.8898 % 13.92 C
328 09-07-2014 00:00:00 12.97083 C 95.1667 % 12.22 C
329 10-07-2014 00:00:00 17.68292 C 90.2000 % 16.06 C
330 11-07-2014 00:00:00 18.42369 C 88.6466 % 16.51 C
331 12-07-2014 00:00:00 18.68363 C 88.1018 % 16.67 C
332 13-07-2014 00:00:00 19.06941 C 85.5922 % 16.6 C
333 14-07-2014 00:00:00 19.60206 C 79.5021 % 15.96 C
334 15-07-2014 00:00:00 21.3216 C 70.6901 % 15.78 C
335 16-07-2014 00:00:00 21.88732 C 74.8829 % 17.23 C
336 17-07-2014 00:00:00 23.77903 C 70.2742 % 18.04 C
337 18-07-2014 00:00:00 24.87935 C 65.5097 % 17.97 C
338 19-07-2014 00:00:00 27.76989 C 58.4086 % 18.86 C
339 20-07-2014 00:00:00 22.68715 C 80.6840 % 19.19 C
340 21-07-2014 00:00:00 20.29965 C 91.0660 % 18.79 C
341 22-07-2014 00:00:00 23.6856 C 82.0494 % 20.44 C
342 23-07-2014 00:00:00 23.11788 C 73.8869 % 18.2 C
343 24-07-2014 00:00:00 20.63922 C 73.5020 % 15.74 C
344 25-07-2014 00:00:00 21.8193 C 72.9825 % 16.76 C
345 26-07-2014 00:00:00 21.92 C 74.3097 % 17.14 C
346 27-07-2014 00:00:00 19.66694 C 83.9339 % 16.88 C
347 28-07-2014 00:00:00 22.3284 C 78.8580 % 18.48 C
348 29-07-2014 00:00:00 19.88194 C 95.8125 % 19.19 C
349 30-07-2014 00:00:00 19.93194 C 85.4097 % 17.41 C
350 31-07-2014 00:00:00 20.20645 C 77.0896 % 16.06 C
Sensor: Nr:Datum:Temp:Feuchte:Taupunkt:
Aussen-T/F 351 01-08-2014 00:00:00 20.08438 C 81.7153 % 16.86 C
352 02-08-2014 00:00:00 20.10868 C 84.8264 % 17.48 C
353 03-08-2014 00:00:00 21.3566 C 81.2743 % 18.02 C
354 04-08-2014 00:00:00 19.00347 C 86.5799 % 16.71 C
355 05-08-2014 00:00:00 18.77049 C 82.0208 % 15.64 C
356 06-08-2014 00:00:00 17.59618 C 84.4201 % 14.94 C
357 07-08-2014 00:00:00 18.9934 C 85.7986 % 16.56 C
358 08-08-2014 00:00:00 18.87604 C 89.5625 % 17.12 C
359 09-08-2014 00:00:00 20.16771 C 80.6076 % 16.73 C
360 10-08-2014 00:00:00 19.0125 C 90.0208 % 17.34 C
361 11-08-2014 00:00:00 17.0066 C 81.0000 % 13.72 C
362 12-08-2014 00:00:00 17.62431 C 72.1944 % 12.56 C
363 13-08-2014 00:00:00 15.97674 C 89.6528 % 14.28 C
364 14-08-2014 00:00:00 16.15426 C 84.3298 % 13.51 C
365 15-08-2014 00:00:00 14.48638 C 92.1720 % 13.23 C

Maximal/Minimal-Werte vom 14.07.2014 - 16.08.2014

Sensor Min Max Avg
Temp
(Aussen-T/F)
12.6 °C
06-08-2014  06:00:00
34.9 °C
19-07-2014  15:55:00
19.97 °C
Feuchte
(Aussen-T/F)
32 %
18-07-2014  16:55:00
100 %
14-07-2014  03:35:00
81.53 %

Die Daten stammen von einer Davis Vantage Pro 2 Wetter-Station und werden unter Linux mit der Software wview2wettercgi und aufbereitet. Alle Angaben erfolgen ohne Gewähr für ihre Vollständigkeit oder Richtigkeit.
Kontakt: Rainer Krienke krienke@uni-koblenz.de . Meine Webseiten an der Uni Koblenz oder privat.
Version: $Revision: 0.78 $